Wind_Speed
12 12 12 11 11 11 10 10 10 10 10 10 10 10 9 9 9 10 10 9 9 10 10 10 11 12 12 12 12 13 14 14 15 16 16 17 17 17 18 19 20 21 21
13 13 12 11 11 11 11 11 11 11 11 11 11 11 10 11 11 11 11 11 11 12 12 12 13 13 13 14 14 15 15 16 16 17 18 18 19 20 20 21 22 23 24
15 14 13 13 12 12 12 12 12 12 13 13 13 13 12 12 12 12 12 12 13 13 14 14 14 14 15 15 16 16 17 18 19 19 20 21 22 22 23 23 24 25 26
14 14 14 14 13 13 13 13 14 14 14 14 14 14 14 13 13 13 14 14 14 15 15 15 15 16 17 17 17 18 19 20 20 21 22 23 24 25 25 26 27 27 28
14 14 14 14 14 14 14 14 14 14 14 14 14 14 14 14 14 15 15 15 15 16 16 16 17 18 18 19 19 20 21 21 22 23 24 25 26 27 28 29 29 30 31
14 14 15 15 15 14 14 15 14 14 15 15 15 14 14 15 15 16 16 16 16 17 18 18 19 19 20 20 21 22 23 23 24 25 26 27 28 29 30 31 32 32 33
15 15 15 15 15 15 14 14 14 15 15 15 16 15 16 17 17 17 17 17 18 19 19 19 19 20 21 22 23 24 24 25 26 27 28 29 30 31 32 34 35 35 37
15 15 15 15 14 14 14 14 14 15 15 16 16 16 17 18 18 18 18 18 18 19 19 20 21 22 23 24 25 26 27 28 28 29 31 32 33 34 35 36 37 38 39
16 16 16 15 15 15 15 15 15 15 16 16 16 16 16 17 18 18 18 18 19 20 21 22 23 23 24 25 26 28 29 30 31 32 33 34 36 37 38 39 39 40 41
16 16 16 16 16 16 16 16 16 16 16 16 16 16 17 17 18 18 18 19 20 21 22 23 24 25 25 27 28 30 31 32 33 34 35 36 37 39 40 41 41 42 43
16 16 17 17 17 17 17 17 17 16 16 16 17 18 19 19 19 19 20 20 22 23 23 24 24 26 27 28 30 31 32 33 35 35 36 38 39 40 41 42 43 44 45
17 17 17 17 17 17 17 17 17 17 17 17 18 19 20 21 21 21 22 23 24 24 25 26 27 28 29 31 32 33 34 35 36 37 38 40 40 42 43 44 45 45 46
17 17 17 17 17 17 17 17 17 17 17 17 18 18 19 20 21 22 23 25 26 25 26 27 28 30 32 33 34 35 36 38 39 40 41 42 43 44 45 46 46 46 46
18 18 18 17 17 17 17 17 18 18 18 18 18 19 20 21 22 23 24 26 27 27 27 28 30 32 33 35 36 38 39 40 41 42 42 43 45 46 46 46 46 46 46
19 19 19 18 18 18 18 18 19 20 20 20 21 21 22 22 23 24 25 26 27 28 29 31 32 34 36 37 38 39 40 41 42 43 44 45 45 46 46 47 47 47 47
20 19 19 19 19 19 19 19 20 21 21 22 23 23 24 24 25 25 26 27 28 29 31 32 34 35 37 38 40 41 42 42 43 44 45 46 46 47 47 48 48 48 48
20 20 20 21 21 21 21 21 22 22 23 24 25 25 25 26 26 27 28 29 30 31 33 34 36 37 38 40 40 41 42 43 44 45 46 46 47 48 48 48 48 48 48
21 21 21 22 22 23 23 23 23 24 24 25 25 25 26 27 28 29 30 31 32 33 35 36 37 39 40 41 41 41 42 44 44 45 46 47 48 48 48 48 47 48 48
22 22 22 23 23 23 23 24 24 25 25 25 26 26 27 28 29 30 31 32 34 35 37 38 39 40 41 41 42 43 44 45 45 46 47 47 48 48 48 47 47 47 47
22 23 23 24 24 24 24 24 25 25 26 26 27 27 28 29 30 31 33 34 36 37 39 40 41 41 42 42 43 44 45 45 46 46 47 48 48 48 48 47 47 47 47
22 23 23 23 24 24 25 25 26 26 26 27 28 28 29 30 32 33 35 36 38 39 41 41 42 42 43 44 44 45 45 46 47 47 48 48 48 48 47 47 47 47 46
23 23 23 23 24 25 25 26 26 27 28 29 29 31 32 33 34 35 37 38 40 41 42 42 42 43 44 44 45 45 46 47 47 48 48 48 48 47 47 46 46 46 45
24 24 24 25 25 25 26 26 27 28 29 31 31 32 34 34 35 37 38 40 41 41 41 42 43 43 43 44 44 45 46 46 47 47 47 47 47 47 46 46 45 45 44
26 26 26 26 27 27 27 28 28 29 31 32 32 34 35 36 37 38 39 40 40 40 41 42 42 42 43 43 44 45 46 46 46 46 46 46 46 46 45 45 44 44 44
27 28 28 28 29 29 30 30 30 31 32 33 34 35 36 37 38 39 39 39 40 41 41 42 41 42 43 43 44 44 45 45 45 46 46 46 45 45 44 44 43 43 43
29 29 30 31 31 31 31 32 32 32 33 34 35 36 36 37 38 39 39 39 40 40 41 41 42 42 43 43 43 43 44 45 45 45 45 44 44 44 43 43 43 43 43
Wind_Direction
238 239 242 244 245 245 247 247 246 250 254 259 262 266 269 272 275 281 282 282 284 286 288 292 295 298 298 299 302 302 301 303 305 306 306 305 304 304 304 304 304 304 303
237 239 241 243 243 244 247 249 250 253 257 261 263 267 269 272 275 279 280 281 282 285 288 293 296 298 298 299 300 302 302 303 304 305 305 305 304 304 303 303 303 303 303
238 240 241 242 244 247 248 249 252 255 258 262 265 268 270 272 272 275 277 282 282 285 288 291 294 296 298 299 301 302 302 303 303 302 302 302 303 303 302 303 303 302 302
239 242 243 243 247 251 252 254 256 256 259 262 265 267 270 271 272 273 275 278 283 287 289 289 292 295 296 298 300 302 302 302 302 302 302 302 302 302 302 302 302 301 301
239 242 244 245 249 253 254 256 258 258 260 263 265 266 267 268 271 273 276 280 283 286 289 290 292 292 293 296 299 301 301 301 301 302 302 302 302 301 301 301 301 301 301
240 242 243 246 250 252 255 258 258 258 261 264 265 265 265 268 271 274 277 280 282 286 288 289 291 292 292 295 297 299 300 300 301 302 302 302 301 301 300 300 300 299 299
241 244 245 246 250 252 254 257 257 259 263 265 265 266 268 271 273 275 276 280 283 285 287 288 290 293 294 295 297 299 300 301 302 302 302 302 301 301 301 300 300 299 298
242 244 245 245 248 251 254 259 262 265 267 268 269 269 271 273 275 277 278 280 284 285 286 288 291 293 295 297 298 300 301 302 302 301 302 302 302 302 301 301 300 300 300
244 246 245 245 249 254 258 261 264 266 268 269 269 270 274 277 277 278 279 282 285 286 289 291 293 294 295 296 299 301 302 302 302 302 303 303 303 303 302 301 301 301 300
246 246 246 247 250 255 258 263 266 268 269 269 269 271 276 279 280 280 281 283 286 287 289 290 291 293 295 297 299 300 301 302 303 303 303 303 303 303 303 303 303 302 301
249 249 249 249 252 254 258 263 266 267 270 271 272 274 277 280 281 282 284 284 287 289 290 291 292 294 295 297 298 300 301 302 303 303 303 303 303 304 304 304 304 303 303
252 252 252 253 254 256 259 262 265 268 270 270 273 276 279 281 281 282 283 285 288 289 291 291 293 294 296 298 298 300 301 302 303 303 303 303 304 304 304 305 304 304 304
251 251 252 254 256 260 261 263 265 269 271 273 276 279 280 281 283 284 287 287 289 290 292 293 294 295 296 298 299 300 301 302 303 303 303 303 303 304 304 304 304 305 305
249 250 252 255 257 260 262 264 266 269 271 274 276 278 280 282 284 287 290 292 293 292 292 294 295 297 299 300 300 301 302 303 303 303 303 304 304 305 305 304 305 305 305
250 252 255 257 258 260 261 263 266 269 271 274 276 278 279 282 285 287 291 294 295 296 295 295 296 299 301 301 302 302 303 303 304 304 304 305 306 306 305 305 305 305 305
254 254 255 258 261 263 266 269 270 272 274 276 277 278 280 281 284 288 292 293 294 295 297 298 299 300 302 302 303 304 304 304 304 304 305 305 306 306 306 306 305 305 305
255 256 257 260 261 264 268 271 272 273 275 277 279 280 281 283 285 288 291 294 294 296 297 299 300 301 302 303 304 304 305 305 305 305 305 305 306 307 307 306 306 305 305
258 259 260 261 263 266 268 270 272 274 277 278 279 281 283 284 286 288 291 293 295 297 298 300 301 302 303 304 304 305 305 305 305 306 307 307 307 308 308 307 307 306 306
260 261 262 263 265 267 269 271 273 276 277 278 280 281 284 285 287 289 291 293 295 297 298 300 302 303 304 304 305 305 305 305 305 307 308 308 308 308 308 308 307 307 307
261 262 263 265 267 268 270 271 274 275 277 278 280 282 284 286 288 290 292 294 295 297 299 300 301 303 304 304 305 305 306 306 307 308 308 309 309 309 309 308 308 308 308
264 264 264 266 268 269 270 271 273 275 277 280 281 284 287 288 290 291 293 294 296 297 299 300 301 302 303 304 305 306 306 307 307 308 309 310 310 310 309 309 309 309 309
264 266 267 268 269 271 272 273 275 277 279 281 284 286 287 289 291 293 294 295 297 298 300 301 301 302 303 304 304 305 306 307 308 308 309 310 310 310 310 309 309 310 309
266 267 269 271 273 274 274 275 277 279 282 284 286 288 289 291 293 295 296 296 297 298 300 301 303 303 304 304 305 306 307 308 308 309 310 310 311 311 311 311 310 310 310
266 268 271 273 275 276 276 277 279 281 284 285 287 289 291 292 294 296 297 297 297 298 300 302 302 303 303 305 306 308 308 309 310 311 312 312 313 312 313 312 311 311 311
267 269 272 274 276 277 278 280 281 282 284 286 288 290 292 294 295 297 298 298 298 299 301 301 302 303 304 305 307 309 309 310 311 311 312 314 314 314 314 313 313 312 312
267 270 273 275 276 277 279 281 282 283 285 287 289 291 293 294 295 296 298 299 299 301 302 302 302 303 304 306 308 309 310 311 311 312 313 314 314 314 314 314 314 314 313
Height
5860 5861 5862 5862 5863 5863 5864 5865 5865 5865 5866 5866 5866 5865 5865 5865 5865 5865 5864 5864 5863 5863 5862 5861 5860 5859 5858 5857 5855 5854 5852 5851 5849 5847 5845 5843 5841 5839 5837 5835 5832 5830 5828
5857 5858 5859 5859 5860 5861 5861 5862 5862 5862 5863 5863 5863 5863 5862 5862 5862 5862 5861 5861 5860 5860 5859 5858 5857 5856 5854 5853 5852 5850 5849 5847 5845 5843 5841 5839 5837 5835 5832 5830 5827 5825 5822
5854 5855 5855 5856 5857 5857 5858 5858 5859 5859 5859 5859 5859 5859 5859 5859 5859 5858 5858 5857 5857 5856 5855 5854 5853 5852 5851 5849 5848 5846 5845 5843 5841 5839 5836 5834 5832 5829 5827 5824 5822 5819 5816
5850 5851 5852 5853 5853 5854 5855 5855 5855 5855 5856 5856 5855 5855 5855 5855 5855 5855 5854 5854 5853 5853 5852 5850 5849 5848 5847 5845 5843 5842 5840 5838 5836 5834 5831 5829 5826 5823 5821 5818 5815 5812 5809
5847 5848 5848 5849 5850 5850 5851 5851 5851 5851 5851 5852 5851 5851 5851 5851 5851 5851 5850 5850 5849 5848 5848 5846 5845 5844 5842 5841 5839 5837 5835 5833 5830 5828 5825 5822 5819 5816 5814 5810 5807 5804 5800
5843 5844 5845 5845 5846 5847 5847 5847 5847 5847 5847 5847 5847 5847 5847 5847 5846 5846 5846 5845 5844 5844 5843 5842 5840 5839 5837 5835 5834 5831 5829 5827 5824 5821 5819 5815 5812 5809 5806 5802 5799 5796 5792
5839 5840 5841 5841 5842 5842 5843 5843 5843 5843 5843 5843 5843 5842 5842 5842 5841 5841 5840 5840 5839 5839 5838 5837 5835 5834 5832 5830 5828 5825 5823 5820 5817 5814 5811 5808 5805 5801 5798 5794 5790 5786 5782
5835 5836 5837 5837 5838 5838 5839 5839 5839 5839 5839 5838 5838 5838 5837 5837 5836 5835 5834 5834 5834 5833 5832 5831 5830 5828 5826 5824 5821 5819 5816 5813 5810 5807 5803 5799 5796 5792 5788 5784 5780 5776 5771
5831 5832 5833 5833 5834 5834 5834 5835 5834 5834 5834 5834 5833 5833 5832 5831 5830 5830 5829 5829 5828 5828 5827 5825 5824 5822 5819 5817 5815 5812 5809 5805 5801 5798 5794 5790 5786 5782 5777 5773 5769 5764 5760
5827 5828 5828 5829 5829 5830 5830 5830 5830 5830 5829 5829 5829 5828 5828 5827 5826 5825 5824 5824 5823 5822 5820 5819 5817 5815 5813 5810 5807 5804 5801 5797 5793 5789 5785 5781 5776 5771 5766 5762 5757 5752 5748
5822 5823 5824 5824 5825 5825 5825 5825 5825 5825 5825 5824 5824 5823 5823 5822 5821 5820 5819 5818 5817 5816 5814 5812 5810 5808 5805 5803 5799 5796 5793 5789 5785 5780 5776 5771 5766 5761 5756 5750 5745 5740 5735
5818 5818 5819 5819 5820 5820 5821 5821 5820 5820 5820 5819 5818 5818 5817 5816 5815 5814 5813 5812 5811 5809 5807 5805 5803 5800 5798 5794 5791 5788 5784 5779 5775 5771 5766 5761 5756 5751 5745 5739 5734 5728 5722
5813 5813 5814 5814 5815 5815 5816 5816 5815 5815 5815 5814 5814 5813 5812 5811 5810 5808 5807 5806 5803 5802 5800 5798 5795 5792 5789 5786 5782 5778 5774 5770 5765 5761 5756 5751 5745 5739 5734 5728 5722 5716 5710
5808 5808 5809 5810 5810 5810 5810 5810 5810 5810 5809 5809 5808 5808 5806 5805 5804 5802 5801 5799 5797 5794 5792 5790 5787 5784 5781 5777 5773 5769 5764 5759 5754 5750 5744 5739 5733 5727 5721 5716 5710 5704 5698
5803 5803 5804 5804 5805 5805 5805 5805 5804 5804 5804 5803 5802 5801 5800 5799 5798 5796 5794 5792 5790 5787 5785 5782 5779 5775 5772 5768 5763 5759 5754 5748 5743 5738 5733 5727 5722 5716 5709 5703 5697 5691 5685
5798 5798 5798 5799 5799 5799 5799 5799 5798 5798 5797 5797 5796 5795 5794 5792 5791 5789 5787 5785 5782 5780 5777 5774 5770 5766 5762 5758 5753 5748 5743 5737 5732 5727 5721 5716 5710 5704 5697 5691 5684 5678 5672
5792 5792 5793 5793 5793 5793 5793 5793 5792 5792 5791 5790 5789 5788 5786 5785 5783 5781 5779 5777 5774 5771 5768 5765 5761 5757 5752 5748 5743 5737 5732 5726 5721 5715 5710 5704 5698 5691 5685 5678 5672 5665 5659
5786 5786 5786 5786 5787 5787 5786 5786 5785 5785 5784 5783 5782 5780 5779 5777 5775 5773 5771 5768 5766 5762 5759 5755 5751 5746 5742 5737 5732 5726 5721 5715 5709 5704 5698 5692 5685 5679 5672 5666 5659 5652 5646
5779 5780 5780 5780 5780 5780 5780 5779 5778 5777 5777 5775 5774 5773 5771 5769 5767 5765 5762 5760 5757 5753 5749 5745 5741 5736 5731 5726 5720 5715 5709 5704 5698 5692 5686 5679 5673 5666 5659 5653 5646 5640 5633
5772 5772 5773 5773 5773 5773 5772 5772 5771 5770 5769 5768 5767 5765 5763 5761 5759 5756 5753 5750 5747 5743 5739 5735 5730 5725 5720 5715 5709 5704 5698 5692 5686 5680 5673 5667 5660 5653 5647 5640 5634 5628 5621
5765 5765 5765 5765 5765 5765 5765 5764 5763 5762 5761 5760 5758 5757 5755 5752 5750 5747 5744 5741 5737 5733 5729 5724 5719 5714 5709 5703 5698 5692 5686 5680 5674 5668 5662 5655 5648 5641 5635 5628 5622 5615 5609
5758 5758 5758 5758 5758 5757 5757 5756 5755 5754 5753 5751 5750 5748 5745 5743 5740 5737 5734 5730 5726 5722 5717 5713 5708 5703 5698 5692 5686 5681 5675 5669 5662 5656 5650 5643 5636 5630 5623 5617 5610 5604 5597
5751 5751 5751 5750 5750 5749 5749 5748 5747 5745 5744 5742 5740 5738 5736 5733 5730 5727 5723 5719 5715 5711 5706 5701 5696 5691 5686 5680 5675 5669 5663 5657 5651 5644 5638 5631 5625 5618 5611 5605 5598 5592 5586
5743 5743 5742 5742 5742 5741 5740 5739 5738 5736 5735 5733 5731 5728 5726 5723 5720 5716 5712 5708 5703 5699 5694 5690 5685 5680 5674 5669 5663 5658 5652 5646 5639 5633 5626 5620 5613 5607 5600 5594 5587 5581 5575
5734 5734 5734 5733 5733 5732 5731 5729 5728 5727 5725 5723 5721 5718 5716 5712 5709 5705 5701 5697 5692 5688 5683 5678 5674 5669 5663 5658 5652 5647 5641 5634 5628 5622 5615 5609 5602 5596 5589 5583 5577 5571 5564
5725 5725 5724 5724 5723 5722 5721 5720 5718 5716 5714 5712 5710 5707 5705 5701 5698 5694 5690 5686 5681 5677 5672 5667 5662 5657 5652 5647 5642 5636 5630 5624 5617 5611 5605 5599 5592 5586 5579 5573 5567 5560 5554